sat.trackr.live / text

‹ back to catalog

STARLINK-32810

NORAD 63037 · 2025-034J

PAYLOAD ACTIVE UNKNOWN

§ Identity

Operator
Country
US
Launch date
2025-02-18
Launch site
AFETR
Launch vehicle
Mass (kg)
RCS (m²)

Purposes: comms

External: N2YO · Heavens-Above · Gunter

§ Orbital elements

Epoch: 2026-05-25T00:49:44.744160Z

Period
93.91 min
Inclination
53.1582°
Eccentricity
0.0001637
Mean motion
15.33357900 rev/d
Perigee alt
464.7 km
Apogee alt
466.9 km
Semi-major
6,843.9 km
B*
1.0241e-2
RAAN
263.6487°
Arg perigee
86.2250°
Mean anomaly
273.8939°
Rev number
7,077

§ Raw data

STARLINK-328101 63037U 25034J   26145.03454565  .00350520  00000+0  10241-1 0  99962 63037  53.1582 263.6487 0001637  86.2250 273.8939 15.33357900 70779

JSON: /api/v1/satellites/63037 · /tle

For live sub-satellite position, see the globe view (requires WebGL).

§ Visibility from observer

Set your observer location to see the next 7 days of passes ≥ 10°. The values pass through the URL so the page stays shareable.

No JS? Fill the form by hand. The geolocation button needs JavaScript.